Wind_Speed
8 8 6 7 5 6 12 9 7 3 2 3 5 4 6 12 4 2 3 11 9 9 3 6 14 16 19 18 18 17 15 14 12 10 9 8 6 9 11 13 13 13 15 17 13 13 17 16 14
7 8 7 5 5 9 9 7 9 4 5 4 4 7 6 4 3 3 4 11 11 8 2 5 12 17 18 21 19 18 17 15 13 11 10 8 7 11 12 13 13 12 16 16 14 14 14 14 12
8 10 7 4 6 11 5 2 3 6 1 3 3 3 5 1 2 1 2 9 10 10 8 5 16 18 20 22 20 19 18 17 15 13 11 9 8 12 14 14 12 17 16 16 14 11 12 13 11
6 3 2 6 10 2 4 4 2 4 4 3 2 7 3 1 1 0 3 7 8 11 8 2 15 18 20 23 22 21 20 19 17 15 12 10 9 12 15 17 15 19 16 14 14 12 12 10 12
5 4 6 7 7 1 3 2 0 2 1 2 3 5 4 2 4 4 4 7 9 9 9 6 10 18 22 23 24 23 22 20 19 17 12 11 10 13 16 19 17 17 16 14 14 12 11 11 11
3 3 5 9 9 3 3 2 3 5 4 5 6 11 13 6 6 7 8 10 11 11 10 9 10 13 21 24 25 25 24 22 21 19 14 13 13 14 17 20 19 17 16 14 13 13 12 11 11
3 4 4 6 4 4 3 2 5 4 7 8 4 7 8 7 10 12 12 14 16 14 13 10 11 14 17 24 25 25 26 25 23 21 17 16 15 17 19 19 20 17 16 14 13 13 12 12 11
3 3 2 3 4 2 3 2 1 5 8 6 7 6 6 2 8 13 18 20 20 20 17 13 11 16 16 22 26 27 27 27 25 23 19 19 18 20 20 20 19 18 17 15 13 14 14 12 12
1 4 5 4 4 2 3 3 4 6 13 14 17 20 21 22 22 22 22 22 21 20 17 18 16 13 17 19 26 29 28 28 27 25 22 22 22 22 22 22 20 18 17 15 16 15 15 13 12
4 4 3 6 1 5 5 8 9 9 13 17 16 17 17 18 19 19 20 21 20 20 19 18 19 17 18 19 25 27 32 31 30 29 26 26 22 24 24 24 21 19 19 16 17 17 15 13 13
0 4 4 3 6 7 11 12 12 14 16 13 13 17 18 19 21 21 22 23 24 23 23 21 20 21 19 23 20 26 32 35 33 32 29 30 25 25 25 26 25 23 21 20 20 18 17 13 12
4 2 4 4 5 8 12 15 16 17 21 20 18 16 19 22 23 23 23 24 23 25 27 27 26 25 25 25 28 27 30 36 37 36 31 32 29 29 30 28 26 24 24 24 24 20 17 13 11
5 3 5 11 12 14 17 20 17 17 16 14 14 18 19 21 23 23 22 25 26 27 29 29 29 30 31 26 29 28 31 35 39 38 35 32 34 33 33 31 25 22 22 23 23 18 17 15 14
4 10 14 17 18 13 12 14 5 8 4 11 16 18 19 21 23 26 23 24 26 28 31 30 31 30 31 32 30 33 31 36 38 40 40 34 38 36 34 31 24 24 23 23 22 20 20 17 15
8 13 13 14 2 6 5 15 13 10 6 12 15 17 19 21 23 26 26 26 26 29 30 31 32 31 28 28 29 29 34 35 40 41 42 39 39 39 36 33 26 25 24 23 22 22 20 18 17
8 9 8 4 4 4 5 8 11 6 10 13 15 16 20 23 24 26 28 29 28 30 31 31 30 30 32 30 29 28 26 33 40 42 45 41 40 39 38 37 32 26 24 26 24 22 21 20 19
4 5 7 8 6 3 7 10 8 12 10 14 19 20 23 24 28 28 30 33 34 32 32 33 35 35 33 34 31 28 27 31 38 44 44 44 42 42 41 37 33 30 28 26 26 25 24 23 21
7 6 6 10 2 11 14 15 14 15 7 14 19 23 25 28 30 30 33 35 34 35 33 34 35 36 37 32 34 33 31 30 37 44 47 45 45 43 45 39 37 33 29 27 30 29 27 23 21
13 11 14 13 8 8 13 12 14 12 5 11 17 22 25 30 33 30 32 29 24 27 29 32 34 35 34 34 36 35 35 32 35 39 48 46 47 46 47 43 38 35 35 32 32 29 28 26 23
13 14 14 13 6 9 15 15 14 3 4 10 15 19 23 29 35 34 31 28 20 22 27 32 34 36 35 38 40 37 35 35 29 37 44 45 48 47 46 43 41 41 40 33 32 31 32 29 29
12 10 8 12 14 16 13 18 9 7 4 12 18 19 26 30 33 34 31 25 18 13 15 24 29 33 36 37 35 33 30 33 38 38 39 47 47 44 45 44 45 43 43 40 36 37 34 34 31
12 1 11 10 8 5 4 1 15 1 6 13 21 23 28 31 36 34 29 24 17 12 13 18 23 29 31 31 33 35 33 34 36 43 41 41 43 46 45 46 46 46 45 41 38 40 38 36 36
7 5 8 8 8 9 7 5 9 5 10 15 19 23 29 30 31 32 30 25 21 15 11 16 19 24 28 31 29 32 33 32 34 38 41 43 45 45 45 48 45 47 47 42 40 42 41 39 37
9 6 9 9 6 4 5 4 4 5 10 14 17 23 27 30 30 29 28 25 18 16 15 13 17 21 25 28 30 33 33 33 31 36 40 41 43 47 43 47 46 46 47 45 43 45 43 41 39
4 5 4 4 4 0 4 5 2 5 7 8 12 19 25 25 29 33 35 31 20 14 3 8 15 22 23 28 32 33 35 35 34 40 34 45 44 42 46 43 44 43 44 43 43 45 44 42 40
5 3 3 3 2 2 5 4 0 2 4 8 11 16 19 30 34 33 34 35 27 18 5 6 8 16 20 24 30 32 35 38 38 37 31 32 41 45 45 46 44 41 43 43 42 44 44 42 40
1 3 2 3 5 4 1 4 6 4 3 9 13 17 22 27 31 33 34 36 29 28 19 9 4 14 17 24 22 28 33 36 37 40 42 42 36 41 43 44 42 43 43 45 45 43 41 38 39
5 3 2 3 3 4 5 3 0 4 4 8 11 16 20 23 29 29 32 33 34 30 22 19 2 7 22 19 27 21 29 31 39 39 29 30 32 35 37 40 41 43 39 44 44 45 38 39 38
2 2 2 2 4 3 4 3 3 2 2 6 9 13 16 20 23 24 28 29 32 32 34 24 19 8 8 16 22 15 23 24 22 25 24 27 27 28 31 38 40 41 48 49 42 40 44 41 43
3 3 3 3 3 2 3 4 4 3 1 3 8 11 12 14 17 19 22 26 29 30 31 31 31 30 25 17 5 6 12 16 18 18 15 16 15 16 22 23 25 27 25 29 25 22 21 23 32
Wind_Direction
166 159 141 160 209 237 236 223 258 187 207 38 351 241 314 269 313 22 116 21 6 16 78 281 204 206 204 202 203 202 202 207 202 203 193 192 185 162 151 148 143 141 135 133 138 140 139 137 134
163 155 151 180 246 215 234 193 208 236 51 336 256 262 267 268 96 80 168 9 7 5 15 185 217 208 211 208 205 206 204 210 213 201 198 200 194 172 158 147 143 155 142 159 151 156 145 139 135
149 153 189 202 231 243 269 77 224 101 326 294 260 239 273 4 69 64 16 6 10 347 334 225 196 214 212 215 209 210 208 208 211 206 205 203 206 183 171 155 162 163 161 169 170 160 149 144 139
141 173 264 234 209 179 326 101 46 233 215 254 316 261 195 231 75 178 337 357 3 359 322 310 199 200 219 218 217 214 214 212 212 208 209 211 211 195 179 166 173 168 175 172 177 166 156 154 141
119 225 229 241 211 132 208 74 241 232 65 244 322 247 225 358 246 268 295 335 340 343 336 295 220 218 214 220 221 219 216 216 214 210 214 217 209 193 184 177 182 181 183 178 178 169 165 157 151
189 272 243 219 186 185 227 159 253 257 279 273 278 279 272 264 282 270 289 308 314 316 320 295 257 224 221 219 222 222 219 218 217 215 216 215 205 196 185 182 188 190 187 183 182 178 170 162 158
277 240 244 300 221 213 189 313 243 316 288 275 309 270 265 276 287 281 287 298 300 300 294 294 286 250 226 221 222 222 222 221 220 218 217 214 206 190 188 187 190 192 194 191 193 187 178 171 167
303 272 233 230 239 232 101 244 256 274 278 297 263 251 258 311 299 299 293 294 287 280 281 275 280 272 241 223 225 221 223 223 221 219 218 212 206 196 197 193 194 198 200 200 201 193 186 179 175
298 243 254 236 240 88 138 287 294 280 267 264 260 266 279 286 292 290 291 286 281 277 273 270 261 266 256 238 223 224 219 222 223 218 218 211 205 200 204 202 201 203 206 207 201 196 191 188 181
266 255 295 27 349 294 283 272 288 286 278 272 274 276 283 287 288 287 283 281 277 272 267 263 261 253 262 245 232 226 219 218 219 218 213 211 202 203 201 203 205 205 208 211 202 195 191 189 189
215 283 43 268 273 281 283 280 274 264 273 267 305 297 293 290 286 283 278 274 272 270 264 257 252 248 246 248 236 232 223 218 216 215 216 208 203 203 203 204 203 203 203 207 202 200 194 181 201
274 248 284 285 270 279 278 287 276 263 266 281 288 293 295 292 288 283 279 275 271 268 263 258 253 246 242 245 239 233 226 221 216 214 209 206 205 204 203 206 205 202 203 201 201 203 199 185 201
260 288 286 276 275 271 277 270 265 271 269 272 281 293 293 292 291 289 282 275 272 266 264 260 254 251 242 239 240 234 228 224 218 214 206 207 206 209 203 206 205 197 208 192 201 197 196 201 203
331 293 286 280 276 272 259 266 253 255 223 268 285 290 293 293 293 291 289 283 274 268 264 259 254 247 246 231 239 233 229 226 221 215 210 204 205 210 207 205 198 200 206 189 199 197 198 202 201
286 289 288 266 279 269 273 250 231 247 294 293 295 295 296 296 296 293 291 287 280 270 264 255 249 246 238 232 229 233 228 224 224 219 214 206 210 213 210 204 194 203 203 195 198 199 201 198 202
259 269 281 133 213 177 242 281 188 241 293 311 313 312 312 305 302 296 293 288 281 273 262 254 243 241 237 231 228 225 228 223 225 223 219 212 212 215 211 208 200 203 202 198 200 201 202 203 205
225 270 251 285 221 267 244 292 302 293 276 296 319 316 316 312 309 303 296 292 282 270 261 253 242 234 234 228 225 225 218 225 224 223 221 216 212 214 212 213 208 203 202 200 199 202 204 202 207
285 266 287 273 255 245 282 275 273 292 277 289 317 321 320 318 315 311 305 299 289 270 254 250 239 233 227 227 216 220 219 222 222 224 222 219 215 216 216 215 214 202 209 201 204 201 204 206 208
292 279 271 265 270 308 277 284 289 294 264 318 324 327 322 321 317 315 310 305 296 270 246 240 233 228 223 214 215 216 220 211 224 223 222 219 216 214 213 220 212 212 218 215 209 207 209 204 204
283 276 272 273 286 263 285 280 275 177 318 337 348 336 326 325 328 327 328 327 319 285 252 233 229 223 220 217 216 217 217 227 215 213 222 222 216 220 216 219 220 220 222 218 215 213 211 216 206
264 283 304 302 307 278 270 259 194 190 357 348 351 345 339 336 332 339 342 336 319 303 251 230 230 224 218 218 215 214 220 220 223 213 215 214 220 221 220 225 226 225 225 226 222 220 219 217 214
289 252 300 273 275 266 228 294 179 257 345 356 358 350 338 336 345 345 347 337 328 313 276 235 229 223 220 214 212 209 211 216 219 222 217 211 216 224 221 229 226 229 227 228 227 228 225 224 222
290 318 265 261 260 290 235 256 135 33 342 353 358 343 334 338 340 342 348 342 318 287 274 248 231 222 219 216 218 215 215 220 226 221 225 223 218 224 222 228 227 228 232 231 231 228 229 229 227
310 264 220 228 228 247 187 222 157 10 342 347 348 338 335 339 345 352 6 4 348 295 269 250 233 219 217 219 221 220 221 220 220 220 222 214 218 216 227 229 232 230 233 234 234 239 236 231 230
291 287 187 179 208 155 145 240 34 24 358 357 350 331 333 344 354 358 5 10 10 359 307 265 240 230 216 222 224 227 228 224 221 216 210 218 219 216 221 216 223 232 232 236 237 241 241 235 231
320 334 332 342 1 21 159 252 51 110 359 348 354 343 340 358 1 4 10 13 20 25 308 285 261 231 217 220 225 226 227 223 222 218 213 218 217 219 226 231 230 237 239 236 240 232 239 240 232
87 249 54 300 207 258 107 177 165 197 352 353 355 354 355 353 357 3 13 17 20 25 27 24 264 244 231 224 222 222 220 217 218 218 221 225 226 231 232 236 238 239 240 238 238 235 238 241 236
280 359 239 212 291 283 189 249 335 198 349 349 352 358 354 358 357 2 10 17 28 21 22 27 82 277 235 230 224 224 214 207 209 213 213 215 223 229 235 239 240 238 238 242 237 241 233 241 240
216 232 220 271 287 301 299 116 65 114 348 337 346 349 352 360 359 3 1 23 34 37 28 36 63 76 229 211 214 224 155 169 185 194 208 218 223 227 231 236 223 240 240 236 231 239 242 235 230
258 298 301 277 153 233 294 278 168 162 185 308 323 339 349 359 1 6 7 20 30 36 34 23 55 65 73 184 178 138 139 159 175 178 182 191 203 217 226 225 233 237 244 247 223 235 240 246 239
Height
1497 1500 1503 1506 1507 1498 1487 1480 1479 1486 1488 1490 1493 1490 1490 1486 1486 1495 1502 1501 1500 1500 1501 1502 1503 1505 1508 1509 1512 1514 1516 1517 1519 1520 1522 1523 1524 1525 1526 1528 1528 1530 1530 1533 1534 1535 1535 1537 1538
1498 1501 1505 1502 1501 1492 1479 1473 1485 1486 1494 1497 1497 1496 1496 1491 1495 1499 1502 1501 1500 1499 1500 1500 1502 1505 1508 1509 1511 1513 1516 1518 1520 1521 1522 1524 1525 1526 1528 1529 1530 1532 1533 1534 1536 1536 1537 1539 1539
1499 1502 1503 1496 1490 1485 1477 1482 1483 1493 1499 1498 1497 1497 1495 1495 1498 1500 1502 1501 1502 1500 1499 1498 1500 1504 1506 1509 1511 1513 1515 1518 1520 1522 1523 1524 1525 1527 1529 1530 1532 1533 1534 1535 1537 1538 1539 1540 1541
1502 1504 1505 1494 1486 1482 1486 1491 1497 1497 1500 1501 1501 1497 1498 1499 1500 1502 1502 1501 1502 1502 1499 1499 1500 1501 1505 1508 1510 1512 1515 1517 1519 1521 1523 1524 1525 1527 1530 1532 1533 1534 1536 1537 1538 1540 1541 1542 1542
1503 1503 1495 1490 1483 1489 1491 1496 1499 1497 1498 1500 1504 1497 1498 1500 1500 1501 1501 1501 1501 1501 1500 1499 1500 1501 1503 1506 1509 1511 1514 1517 1519 1520 1522 1524 1525 1527 1530 1532 1533 1535 1537 1538 1540 1541 1542 1543 1544
1502 1503 1494 1487 1486 1493 1494 1497 1499 1499 1499 1501 1503 1501 1500 1500 1500 1501 1499 1500 1500 1499 1500 1500 1499 1500 1501 1504 1507 1510 1513 1515 1518 1520 1521 1523 1525 1527 1529 1532 1534 1535 1537 1539 1541 1542 1543 1544 1545
1499 1496 1490 1489 1488 1495 1495 1501 1499 1499 1501 1501 1502 1502 1500 1500 1500 1500 1498 1497 1497 1498 1499 1499 1499 1498 1499 1502 1504 1508 1511 1514 1516 1519 1521 1522 1525 1526 1529 1531 1534 1536 1538 1540 1541 1543 1543 1544 1546
1503 1498 1493 1494 1489 1492 1502 1503 1503 1503 1501 1503 1504 1498 1496 1498 1499 1497 1496 1495 1494 1495 1496 1497 1499 1497 1498 1499 1501 1505 1508 1511 1514 1517 1520 1521 1524 1526 1528 1531 1534 1536 1538 1540 1541 1543 1544 1545 1546
1505 1498 1493 1489 1499 1494 1505 1504 1502 1503 1502 1501 1500 1498 1498 1496 1496 1495 1493 1491 1492 1492 1493 1494 1495 1497 1496 1496 1498 1501 1505 1508 1511 1515 1518 1520 1522 1525 1527 1530 1533 1536 1538 1540 1541 1543 1544 1546 1547
1504 1497 1490 1498 1501 1502 1504 1505 1503 1503 1498 1496 1495 1495 1494 1494 1493 1491 1490 1489 1488 1489 1490 1491 1491 1493 1493 1493 1495 1497 1500 1504 1508 1512 1513 1517 1521 1523 1526 1528 1531 1534 1537 1540 1541 1542 1544 1546 1547
1505 1499 1502 1504 1506 1506 1505 1503 1501 1499 1495 1492 1492 1493 1492 1492 1489 1487 1486 1485 1484 1484 1484 1485 1487 1487 1489 1489 1491 1493 1496 1499 1503 1508 1511 1514 1519 1521 1524 1525 1528 1531 1534 1537 1540 1542 1544 1545 1547
1506 1505 1506 1505 1506 1506 1503 1501 1498 1496 1492 1492 1491 1491 1489 1487 1485 1483 1481 1480 1479 1477 1477 1478 1479 1481 1483 1485 1485 1488 1491 1494 1498 1502 1507 1510 1515 1517 1520 1523 1525 1528 1530 1534 1537 1540 1543 1546 1548
1505 1502 1504 1504 1503 1502 1500 1498 1496 1491 1490 1489 1488 1487 1485 1483 1480 1478 1476 1475 1473 1471 1470 1471 1473 1474 1476 1478 1479 1482 1485 1488 1492 1497 1502 1506 1510 1513 1516 1520 1524 1527 1528 1532 1535 1538 1542 1545 1548
1505 1505 1502 1501 1498 1497 1496 1493 1494 1486 1486 1486 1485 1483 1481 1479 1475 1472 1470 1469 1467 1466 1464 1465 1465 1467 1469 1472 1473 1476 1479 1484 1487 1492 1496 1501 1505 1508 1512 1517 1522 1526 1527 1531 1534 1537 1540 1542 1545
1505 1502 1496 1493 1493 1493 1495 1489 1486 1483 1481 1481 1480 1478 1476 1474 1471 1467 1464 1463 1461 1459 1458 1457 1458 1460 1462 1465 1468 1469 1472 1477 1481 1486 1491 1495 1499 1504 1508 1513 1519 1523 1526 1529 1532 1535 1537 1540 1542
1500 1497 1498 1490 1493 1491 1494 1477 1478 1478 1478 1477 1476 1474 1471 1469 1466 1462 1458 1455 1454 1451 1450 1450 1451 1452 1454 1458 1462 1464 1467 1470 1475 1479 1485 1490 1493 1498 1504 1508 1514 1519 1523 1526 1529 1533 1535 1538 1539
1495 1495 1498 1493 1489 1489 1489 1478 1473 1475 1473 1473 1471 1469 1466 1463 1460 1455 1450 1445 1443 1442 1441 1440 1442 1443 1446 1450 1456 1459 1462 1463 1467 1472 1476 1483 1487 1494 1499 1503 1509 1515 1518 1522 1526 1528 1531 1533 1536
1497 1498 1493 1495 1490 1488 1485 1478 1472 1470 1468 1471 1469 1465 1463 1460 1452 1446 1440 1434 1429 1428 1429 1431 1433 1435 1438 1442 1447 1451 1454 1457 1460 1464 1470 1476 1480 1487 1493 1499 1503 1509 1513 1518 1521 1524 1527 1530 1533
1492 1494 1492 1483 1481 1486 1479 1472 1470 1466 1470 1470 1468 1466 1462 1456 1447 1440 1433 1427 1420 1416 1417 1420 1423 1426 1431 1435 1438 1441 1443 1449 1452 1457 1463 1469 1472 1479 1485 1491 1498 1502 1506 1511 1515 1519 1523 1526 1530
1493 1489 1485 1478 1480 1483 1477 1469 1465 1467 1469 1469 1467 1466 1460 1451 1441 1433 1424 1417 1414 1409 1408 1411 1414 1418 1422 1426 1429 1434 1439 1442 1447 1451 1455 1460 1465 1472 1479 1485 1491 1497 1500 1505 1509 1513 1517 1521 1524
1486 1487 1486 1487 1479 1477 1473 1464 1461 1463 1466 1467 1465 1464 1456 1448 1439 1428 1418 1414 1409 1407 1405 1406 1409 1412 1415 1420 1425 1429 1434 1438 1441 1443 1447 1452 1460 1466 1473 1479 1484 1489 1494 1498 1502 1507 1510 1515 1519
1490 1490 1493 1487 1483 1469 1468 1450 1451 1457 1462 1463 1462 1459 1453 1447 1437 1428 1420 1411 1406 1404 1403 1403 1405 1408 1412 1416 1418 1422 1425 1429 1432 1438 1443 1448 1453 1459 1465 1470 1478 1481 1487 1492 1497 1501 1504 1509 1513
1490 1492 1492 1486 1480 1473 1469 1470 1449 1453 1461 1460 1461 1459 1452 1445 1437 1428 1419 1412 1405 1401 1398 1400 1401 1404 1408 1411 1414 1418 1421 1424 1428 1433 1438 1442 1448 1452 1458 1464 1470 1475 1480 1486 1490 1495 1498 1502 1507
1490 1489 1485 1482 1477 1481 1458 1470 1446 1460 1462 1460 1461 1458 1450 1443 1435 1427 1418 1409 1403 1398 1397 1396 1397 1398 1401 1405 1408 1411 1415 1419 1422 1425 1431 1437 1442 1447 1452 1458 1463 1469 1473 1478 1484 1487 1492 1496 1500
1486 1484 1480 1482 1478 1463 1459 1462 1453 1456 1459 1460 1460 1456 1449 1442 1433 1423 1415 1407 1401 1395 1393 1393 1393 1393 1395 1398 1401 1405 1409 1413 1417 1420 1425 1430 1437 1440 1446 1451 1456 1462 1466 1468 1477 1480 1484 1489 1491
1486 1487 1489 1472 1460 1453 1456 1451 1449 1455 1457 1457 1457 1453 1447 1439 1431 1424 1416 1407 1401 1396 1394 1392 1391 1389 1390 1393 1394 1398 1401 1407 1412 1417 1420 1421 1431 1436 1442 1445 1450 1456 1461 1464 1469 1474 1477 1481 1486
1482 1487 1487 1490 1476 1466 1444 1444 1450 1453 1452 1455 1453 1450 1445 1440 1434 1425 1416 1409 1403 1397 1393 1390 1386 1386 1386 1386 1389 1391 1394 1399 1406 1412 1418 1421 1425 1431 1436 1440 1445 1449 1452 1458 1463 1463 1469 1473 1479
1489 1488 1486 1484 1473 1458 1438 1443 1440 1446 1451 1453 1451 1449 1446 1442 1435 1428 1422 1414 1406 1402 1395 1390 1384 1382 1380 1381 1383 1386 1388 1394 1400 1407 1412 1417 1422 1427 1432 1436 1440 1443 1447 1452 1456 1458 1460 1465 1471
1483 1481 1483 1487 1477 1465 1454 1441 1443 1447 1451 1452 1450 1449 1447 1443 1438 1433 1427 1419 1413 1407 1400 1393 1385 1383 1380 1382 1383 1381 1379 1386 1400 1403 1409 1413 1419 1424 1428 1430 1432 1437 1441 1444 1447 1452 1454 1457 1461
1488 1484 1486 1476 1472 1465 1468 1451 1446 1448 1450 1452 1450 1448 1446 1444 1442 1436 1431 1423 1418 1412 1408 1400 1389 1384 1383 1383 1385 1387 1388 1392 1398 1403 1409 1412 1416 1420 1423 1426 1430 1436 1439 1442 1443 1448 1451 1454 1457